• In Uzbekistan
  • List of Countries
  • For 7 days
  • Water Temperature
  • Satellite Maps
  • Weather Map
  • Weather Widgets
  • user-avatar
    Login

    Hourly Weather Salva

    Today, 24 November, Friday

    Time Temperature Precipitation Wind Pressure Humidity
    00:00 +24°C° 0 mm 2 mps 761 mmHg 64%
    01:00 +24°C° 0 mm 2 mps 761 mmHg 63%
    02:00 +24°C° 0 mm 2 mps 761 mmHg 61%
    03:00 +24°C° 0 mm 3 mps 761 mmHg 61%
    04:00 +24°C° 0 mm 3 mps 761 mmHg 62%
    05:00 +24°C° 0 mm 3 mps 762 mmHg 62%
    06:00 +23°C° 0 mm 4 mps 762 mmHg 62%
    07:00 +25°C° 0 mm 4 mps 763 mmHg 58%
    08:00 +26°C° 0 mm 5 mps 763 mmHg 53%
    09:00 +27°C° 0 mm 6 mps 763 mmHg 48%
    10:00 +28°C° 0 mm 6 mps 763 mmHg 47%
    11:00 +28°C° 0 mm 6 mps 763 mmHg 47%
    12:00 +28°C° 0 mm 7 mps 763 mmHg 46%
    13:00 +27°C° 0 mm 7 mps 763 mmHg 48%
    14:00 +27°C° 0 mm 8 mps 763 mmHg 50%
    15:00 +26°C° 0 mm 9 mps 763 mmHg 53%
    16:00 +24°C° 0 mm 8 mps 764 mmHg 54%
    17:00 +24°C° 0 mm 8 mps 764 mmHg 55%
    18:00 +23°C° 0 mm 7 mps 764 mmHg 56%
    19:00 +23°C° 0 mm 6 mps 765 mmHg 55%
    20:00 +23°C° 0 mm 6 mps 765 mmHg 55%
    21:00 +22°C° 0 mm 5 mps 765 mmHg 54%
    22:00 +22°C° 0 mm 5 mps 765 mmHg 54%
    23:00 +22°C° 0 mm 4 mps 765 mmHg 53%

    Tomorrow, 25 November, Saturday

    Time Temperature Precipitation Wind Pressure Humidity
    00:00 +21°C° 0 mm 4 mps 765 mmHg 53%
    01:00 +21°C° 0 mm 4 mps 765 mmHg 53%
    02:00 +21°C° 0 mm 4 mps 765 mmHg 53%
    03:00 +21°C° 0 mm 4 mps 765 mmHg 53%
    04:00 +21°C° 0 mm 4 mps 765 mmHg 54%
    05:00 +21°C° 0 mm 4 mps 766 mmHg 55%
    06:00 +20°C° 0 mm 4 mps 766 mmHg 56%
    07:00 +22°C° 0 mm 5 mps 766 mmHg 51%
    08:00 +23°C° 0 mm 6 mps 767 mmHg 46%
    09:00 +26°C° 0 mm 7 mps 767 mmHg 40%
    10:00 +26°C° 0 mm 7 mps 766 mmHg 37%
    11:00 +27°C° 0 mm 7 mps 766 mmHg 33%
    12:00 +28°C° 0 mm 7 mps 766 mmHg 29%
    13:00 +28°C° 0 mm 7 mps 765 mmHg 29%
    14:00 +27°C° 0 mm 7 mps 765 mmHg 28%
    15:00 +27°C° 0 mm 7 mps 765 mmHg 27%
    16:00 +26°C° 0 mm 6 mps 765 mmHg 31%
    17:00 +25°C° 0 mm 5 mps 765 mmHg 34%
    18:00 +23°C° 0 mm 4 mps 765 mmHg 38%
    19:00 +22°C° 0 mm 4 mps 766 mmHg 42%
    20:00 +22°C° 0 mm 4 mps 766 mmHg 46%
    21:00 +22°C° 0 mm 4 mps 766 mmHg 50%
    22:00 +21°C° 0 mm 4 mps 766 mmHg 53%
    23:00 +21°C° 0 mm 4 mps 766 mmHg 55%

    Day after tomorrow, 26 November, Sunday

    Time Temperature Precipitation Wind Pressure Humidity
    00:00 +21°C° 0 mm 3 mps 766 mmHg 58%
    01:00 +20°C° 0 mm 4 mps 766 mmHg 58%
    02:00 +20°C° 0 mm 4 mps 766 mmHg 58%
    03:00 +20°C° 0 mm 4 mps 765 mmHg 58%
    04:00 +20°C° 0 mm 4 mps 766 mmHg 57%
    05:00 +20°C° 0 mm 4 mps 766 mmHg 56%
    06:00 +19°C° 0 mm 4 mps 766 mmHg 56%
    07:00 +21°C° 0 mm 5 mps 766 mmHg 51%
    08:00 +22°C° 0 mm 5 mps 767 mmHg 47%
    09:00 +25°C° 0 mm 5 mps 767 mmHg 42%
    10:00 +26°C° 0 mm 5 mps 766 mmHg 40%
    11:00 +27°C° 0 mm 5 mps 766 mmHg 37%
    12:00 +28°C° 0 mm 5 mps 765 mmHg 34%
    13:00 +28°C° 0 mm 5 mps 765 mmHg 35%
    14:00 +28°C° 0 mm 5 mps 764 mmHg 35%
    15:00 +28°C° 0 mm 5 mps 764 mmHg 36%
    16:00 +27°C° 0 mm 5 mps 764 mmHg 40%
    17:00 +26°C° 0 mm 4 mps 764 mmHg 45%
    18:00 +24°C° 0 mm 3 mps 765 mmHg 49%
    19:00 +24°C° 0 mm 3 mps 765 mmHg 51%
    20:00 +22°C° 0 mm 3 mps 765 mmHg 54%
    21:00 +23°C° 0 mm 2 mps 765 mmHg 56%
    22:00 +23°C° 0 mm 2 mps 765 mmHg 58%
    23:00 +21°C° 0 mm 2 mps 764 mmHg 59%

    27 November, Monday

    Time Temperature Precipitation Wind Pressure Humidity
    00:00 +21°C° 0 mm 2 mps 764 mmHg 61%
    01:00 +21°C° 0 mm 2 mps 764 mmHg 62%
    02:00 +21°C° 0 mm 2 mps 764 mmHg 62%
    03:00 +21°C° 0 mm 2 mps 763 mmHg 63%
    04:00 +20°C° 0 mm 2 mps 763 mmHg 64%
    05:00 +20°C° 0 mm 2 mps 764 mmHg 66%
    06:00 +20°C° 0 mm 2 mps 764 mmHg 67%
    07:00 +23°C° 0 mm 2 mps 764 mmHg 61%
    08:00 +24°C° 0 mm 2 mps 764 mmHg 55%
    09:00 +26°C° 0 mm 2 mps 765 mmHg 49%
    10:00 +27°C° 0 mm 2 mps 764 mmHg 44%
    11:00 +28°C° 0 mm 2 mps 763 mmHg 40%
    12:00 +29°C° 0 mm 2 mps 763 mmHg 35%
    13:00 +30°C° 0 mm 2 mps 762 mmHg 34%
    14:00 +30°C° 0 mm 3 mps 762 mmHg 33%
    15:00 +31°C° 0 mm 3 mps 761 mmHg 32%
    16:00 +29°C° 0 mm 3 mps 761 mmHg 37%
    17:00 +28°C° 0 mm 3 mps 762 mmHg 42%
    18:00 +26°C° 0 mm 3 mps 762 mmHg 47%
    19:00 +26°C° 0 mm 3 mps 762 mmHg 50%
    20:00 +25°C° 0 mm 3 mps 762 mmHg 52%
    21:00 +25°C° 0 mm 3 mps 763 mmHg 55%
    22:00 +24°C° 0 mm 2 mps 762 mmHg 57%
    23:00 +24°C° 0 mm 2 mps 762 mmHg 59%

    28 November, Tuesday

    Time Temperature Precipitation Wind Pressure Humidity
    00:00 +23°C° 0 mm 1 mps 762 mmHg 61%
    01:00 +23°C° 0 mm 1 mps 762 mmHg 62%
    02:00 +22°C° 0 mm 1 mps 761 mmHg 63%
    03:00 +20°C° 0 mm 0 mps 761 mmHg 65%
    04:00 +22°C° 0 mm 1 mps 762 mmHg 64%
    05:00 +21°C° 0 mm 1 mps 762 mmHg 64%
    06:00 +21°C° 0 mm 1 mps 762 mmHg 63%
    07:00 +23°C° 0 mm 2 mps 763 mmHg 57%
    08:00 +26°C° 0 mm 2 mps 763 mmHg 52%
    09:00 +28°C° 0 mm 3 mps 763 mmHg 46%
    10:00 +29°C° 0 mm 3 mps 763 mmHg 43%
    11:00 +30°C° 0 mm 3 mps 762 mmHg 39%
    12:00 +31°C° 0 mm 3 mps 762 mmHg 36%
    13:00 +32°C° 0 mm 4 mps 762 mmHg 38%
    14:00 +32°C° 0 mm 5 mps 761 mmHg 39%
    15:00 +32°C° 0 mm 5 mps 761 mmHg 40%
    16:00 +29°C° 0 mm 5 mps 761 mmHg 48%
    17:00 +28°C° 0 mm 5 mps 762 mmHg 56%
    18:00 +26°C° 0 mm 5 mps 762 mmHg 63%
    19:00 +26°C° 0 mm 5 mps 762 mmHg 67%
    20:00 +25°C° 0 mm 5 mps 763 mmHg 70%
    21:00 +25°C° 0 mm 4 mps 763 mmHg 74%
    22:00 +25°C° 0 mm 4 mps 763 mmHg 75%
    23:00 +23°C° 0 mm 4 mps 763 mmHg 76%

    29 November, Wednesday

    Time Temperature Precipitation Wind Pressure Humidity
    00:00 +23°C° 0 mm 4 mps 762 mmHg 77%
    01:00 +23°C° 0 mm 4 mps 763 mmHg 77%
    02:00 +23°C° 0 mm 4 mps 763 mmHg 77%
    03:00 +22°C° 0 mm 4 mps 763 mmHg 77%
    04:00 +22°C° 0 mm 4 mps 763 mmHg 76%
    05:00 +22°C° 0 mm 5 mps 763 mmHg 74%
    06:00 +22°C° 0 mm 5 mps 764 mmHg 73%
    07:00 +23°C° 0 mm 5 mps 764 mmHg 67%
    08:00 +24°C° 0 mm 6 mps 764 mmHg 60%
    09:00 +27°C° 0 mm 6 mps 765 mmHg 53%
    10:00 +28°C° 0 mm 6 mps 764 mmHg 49%
    11:00 +29°C° 0 mm 6 mps 763 mmHg 44%
    12:00 +30°C° 0 mm 6 mps 763 mmHg 39%
    13:00 +29°C° 0 mm 6 mps 762 mmHg 39%
    14:00 +29°C° 0 mm 6 mps 762 mmHg 39%
    15:00 +29°C° 0 mm 6 mps 762 mmHg 40%
    16:00 +28°C° 0 mm 6 mps 762 mmHg 45%
    17:00 +27°C° 0 mm 5 mps 762 mmHg 50%
    18:00 +25°C° 0 mm 4 mps 763 mmHg 55%
    19:00 +25°C° 0 mm 4 mps 763 mmHg 57%
    20:00 +25°C° 0 mm 4 mps 763 mmHg 60%
    21:00 +23°C° 0 mm 4 mps 763 mmHg 62%
    22:00 +23°C° 0 mm 4 mps 763 mmHg 63%
    23:00 +23°C° 0 mm 4 mps 763 mmHg 64%
    Show more